EW1979 Weather Reports


time (UTC)temp
F
wind
direction
speed
knots
gust
knots
rain 1hr
in
rain 24hr
in
rain mn
in
humidity
%
barometer
mb
20240614114522 74 150 0.0 0.0 0.00 0.00 0.00 100 1011.3
20240614113013 74 150 0.0 0.0 0.00 0.00 0.00 100 1011.1
20240614111514 74 150 0.0 0.0 0.00 0.00 0.00 100 1010.8
20240614110003 74 148 0.0 0.0 0.00 0.00 0.00 100 1010.7
20240614104600 74 148 0.0 0.0 0.00 0.00 0.00 100 1010.4
20240614103057 74 148 0.0 0.0 0.00 0.00 0.00 100 1010.4
20240614101555 74 148 0.0 0.0 0.00 0.00 0.00 100 1010.2
20240614100046 74 144 0.0 0.0 0.00 0.00 0.00 100 1010.2
20240614094549 74 143 0.0 0.0 0.00 0.00 0.00 100 1010.2
20240614093049 74 139 0.0 0.0 0.00 0.00 0.00 100 1010.2
20240614091538 74 135 0.0 0.0 0.00 0.00 0.00 100 1010.2
20240614090029 75 130 0.0 0.0 0.00 0.00 0.00 100 1010.2
20240614084525 75 130 0.0 0.0 0.00 0.00 0.00 100 1010.3
20240614083020 75 130 0.0 0.0 0.00 0.00 0.00 100 1010.3
20240614081517 75 130 0.0 0.0 0.00 0.00 0.00 5 1010.2
20240614080023 75 117 0.0 0.0 0.00 0.00 0.00 11 1010.2
20240614074511 75 106 0.0 0.0 0.00 0.00 0.00 18 1010.1
20240614073013 75 106 0.0 0.0 0.00 0.00 0.00 22 1010.2
20240614071508 76 106 0.0 0.0 0.00 0.00 0.00 25 1010.1
20240614070006 76 96 0.0 0.0 0.00 0.00 0.00 31 1010.2
20240614064503 76 90 0.0 0.0 0.00 0.00 0.00 36 1010.1
20240614063001 76 90 0.0 0.0 0.00 0.00 0.00 41 1010.1
20240614061600 76 90 0.0 0.0 0.00 0.00 0.00 46 1010.1
20240614060102 77 90 0.0 0.0 0.00 0.00 0.00 51 1010.1
20240614054558 77 90 0.0 0.0 0.00 0.00 0.00 54 1010.2
20240614053104 78 89 0.0 0.0 0.00 0.00 0.00 58 1010.2
20240614051550 78 88 0.0 0.0 0.00 0.00 0.00 60 1010.0
20240614050048 79 88 0.0 0.0 0.00 0.00 0.00 62 1010.0
20240614044544 79 86 0.0 0.0 0.00 0.00 0.00 62 1009.9
20240614043040 79 102 0.0 0.0 0.00 0.00 0.00 63 1009.7
20240614041541 80 96 0.0 0.0 0.00 0.00 0.00 64 1009.6
20240614040031 80 112 0.0 0.0 0.00 0.00 0.00 64 1009.5
20240614034526 80 84 0.0 0.0 0.00 0.00 0.00 64 1009.4
20240614033022 80 84 0.0 0.0 0.00 0.00 0.00 64 1009.3
20240614031544 81 84 0.0 0.0 0.00 0.00 0.00 64 1009.1
20240614030014 81 96 0.0 0.0 0.00 0.00 0.00 65 1009.3
20240614024509 81 97 0.0 0.0 0.00 0.00 0.00 64 1008.9
20240614023005 82 98 0.0 0.0 0.00 0.00 0.00 64 1008.7
20240614021627 82 98 0.0 0.0 0.00 0.00 0.00 64 1008.6
20240614020056 83 94 0.0 0.0 0.00 0.00 0.00 63 1008.5
20240614014552 84 96 0.0 0.0 0.00 0.00 0.00 62 1008.5
20240614013049 85 95 0.0 0.0 0.00 0.00 0.00 61 1008.4
20240614011547 86 95 0.0 0.0 0.00 0.00 0.00 59 1008.3
20240614010039 87 98 0.0 0.0 0.00 0.00 0.00 56 1008.2
20240614004539 88 88 0.0 0.0 0.00 0.00 0.00 56 1008.2
20240614003030 88 88 0.0 0.0 0.00 0.00 0.00 55 1008.0
20240614001537 89 109 0.0 0.0 0.00 0.00 0.00 53 1008.0
20240614000022 89 134 0.0 0.0 0.00 0.00 0.00 53 1007.9
20240613234518 90 105 0.0 0.0 0.00 0.00 0.00 53 1007.8
20240613233017 90 154 0.0 0.0 0.00 0.00 0.00 53 1007.8
20240613231513 90 94 0.0 0.0 0.00 0.00 0.00 53 1007.9
20240613230005 91 95 0.0 0.0 0.00 0.00 0.00 53 1007.8
20240613224616 91 101 0.0 0.0 0.00 0.00 0.00 51 1007.9
20240613223135 91 115 0.0 0.0 0.00 0.00 0.00 52 1008.0
20240613221555 91 126 0.0 0.0 0.00 0.00 0.00 52 1008.1
20240613220103 91 111 0.0 0.0 0.00 0.00 0.00 52 1008.2
20240613214543 91 119 0.0 0.0 0.00 0.00 0.00 54 1008.3
20240613213039 91 128 0.0 0.0 0.00 0.00 0.00 51 1008.5
20240613211537 91 124 0.0 0.0 0.00 0.00 0.00 51 1008.8
20240613210032 90 123 0.0 0.0 0.00 0.00 0.00 52 1008.9
20240613204532 90 146 0.0 0.0 0.00 0.00 0.00 52 1009.1
20240613203021 89 109 0.0 0.0 0.00 0.00 0.00 55 1009.3
20240613201517 88 119 0.0 0.0 0.00 0.00 0.00 55 1009.6
20240613200015 89 203 0.0 0.0 0.00 0.00 0.00 52 1009.7
20240613194510 88 148 0.0 0.0 0.00 0.00 0.00 54 1009.9
20240613193003 88 165 0.0 0.0 0.00 0.00 0.00 54 1010.0
20240613191604 89 154 0.0 0.0 0.00 0.00 0.00 53 1010.1
20240613190055 88 154 0.0 0.0 0.00 0.00 0.00 54 1010.2
20240613184614 86 188 0.0 0.0 0.00 0.00 0.00 54 1010.5
20240613183055 86 189 0.0 0.0 0.00 0.00 0.00 54 1010.8
20240613181542 86 190 0.0 0.0 0.00 0.00 0.00 54 1011.0
20240613180038 84 190 0.0 0.0 0.00 0.00 0.00 54 1011.2
20240613174610 85 196 0.0 0.0 0.00 0.00 0.00 53 1011.3
20240613173034 85 196 0.0 0.0 0.00 0.00 0.00 52 1011.2
20240613171551 84 190 0.0 0.0 0.00 0.00 0.00 51 1011.4
20240613170021 84 194 0.0 0.0 0.00 0.00 0.00 49 1011.4
20240613164516 83 195 0.0 0.0 0.00 0.00 0.00 47 1011.4
20240613163019 81 181 0.0 0.0 0.00 0.00 0.00 44 1011.7
20240613161507 82 183 0.0 0.0 0.00 0.00 0.00 45 1011.6
20240613160008 81 170 0.0 0.0 0.00 0.00 0.00 45 1011.5
20240613154602 81 186 0.0 0.0 0.00 0.00 0.00 39 1011.6
20240613153108 79 183 0.0 0.0 0.00 0.00 0.00 33 1011.9
20240613151549 78 190 0.0 0.0 0.00 0.00 0.00 30 1012.0
20240613150057 78 173 0.0 0.0 0.00 0.00 0.00 25 1012.2
20240613144547 78 200 0.0 0.0 0.00 0.00 0.00 18 1012.1
20240613143039 78 199 0.0 0.0 0.00 0.00 0.00 18 1012.0
20240613141533 78 184 0.0 0.0 0.00 0.00 0.00 11 1011.9
20240613140028 77 160 0.0 0.0 0.00 0.00 0.00 100 1012.0
20240613134536 76 171 0.0 0.0 0.00 0.00 0.00 100 1011.7
20240613133019 76 159 0.0 0.0 0.00 0.00 0.00 100 1011.7
20240613131516 75 184 0.0 0.0 0.00 0.00 0.00 100 1011.5
20240613130013 75 177 0.0 0.0 0.00 0.00 0.00 100 1011.4
20240613124512 75 177 0.0 0.0 0.00 0.00 0.00 100 1011.3
20240613123001 75 190 0.0 0.0 0.00 0.00 0.00 100 1011.0
20240613121600 74 157 0.0 0.0 0.00 0.00 0.00 100 1010.9
20240613120054 74 144 0.0 0.0 0.00 0.00 0.00 100 1010.8